RADUGA 6 (11708 NORAD) Tracking and Keplerian Element Data

This shows tracking and keplerian element data for the satellite.

Feedback or suggestion? Click here.




ElementValue
Catalog11708
NameRADUGA 6
Epoch Orbit12036
Epoch Day353.85190814
Epoch Year2025
RAAN288.3713
Inclination6.1572
Eccentricity0.0003233
Argument of Perigee323.1931
Mean Anonmoly237.3576
Mean Motion1.00213124
Decay Rate-2.18E-06
L11 11708U 80016A 25353.85190814 -.00000218 00000+0 00000+0 0 9996
L22 11708 6.1572 288.3713 0003233 323.1931 237.3576 1.00213124120364



Live tracking and technical data element details for RADUGA 6 (NORAD 11708). RADUGA 6 can be tracked NOW for your location showing map with azimuth and elevation plus other details from your city location.







IsCatalogInMostPopularTable: catalog: 11708, numindb: 344
Update: records affected: 1



GetName: 11708 RADUGA 6

Hit Count: updated at: Thu, 21 May 2026 11:53:38 GMT